Welcome to the New NWS' Forecast!
Most changes are behind the scenes, but click here for differences you might notice.
Latest weather observations around

Houston Intercontinental Airport (KIAH)

Using English Units (Switch to International System of Units)
Date/ Time (CDT) Wind (mph) Vis. (mi) Weather Sky Cond. Temp (°F) Rel. Humidity Wind Chill (°F) Heat Index (°F) Pressure Precip. (in)
Air Dwpt 6 hour Altimeter (inHg) Sea level (inHg) 1 hr 3 hr 6 hr
Max Min
Sep 23 08:53 W 5 10 Mostly Cloudy SCT009 BKN055 BKN250 72 71     97%   73 29.92 29.92      
Sep 23 08:24 SSW 5 10 Mostly Cloudy SCT009 BKN060 BKN250 72 72     100%   74 29.92        
Sep 23 07:53 WSW 3 10 Mostly Cloudy FEW018 BKN060 BKN250 71 71     100%   73 29.9 29.9      
Sep 23 06:53 Calm 10 Mostly Cloudy SCT018 SCT085 BKN250 71 71     100%   73 29.89 29.89     0
Sep 23 06:42 Calm 10 Mostly Cloudy FEW005 SCT018 BKN100 BKN250 71 71     100%   73 29.89        
Sep 23 05:53 W 5 10 Cloudy FEW005 OVC018 72 71     97%   73 29.88 29.88      
Sep 23 05:05 Calm 9 Cloudy SCT005 OVC018 71 71     100%   73 29.88        
Sep 23 04:53 NW 7 9 Cloudy OVC018 71 71     100%   73 29.87 29.87      
Sep 23 03:53 NW 3 9 Mostly Cloudy FEW006 BKN018 BKN100 72 71     97%   73 29.88 29.88   0  
Sep 23 02:53 WNW 7 9 Mostly Cloudy SCT005 BKN016 BKN100 72 72     100%   74 29.9 29.89 0    
Sep 23 02:05 W 8 7 Mostly Cloudy FEW005 BKN016 BKN080 74 74     100%   76 29.88   0    
Sep 23 01:53 W 8 6 Thunderstorms and Rain and Fog/Mist SCT005 BKN016 BKN080 75 75     100%   77 29.89 29.88 0    
Sep 23 01:22 W 6 5 Thunderstorms and Rain and Fog/Mist SCT008 BKN018 BKN080 77 77     100%   79 29.89   0    
Sep 23 01:08   2 Thunderstorms and Heavy Rain and Fog/Mist SCT008 BKN014 BKN080 78 78     100%   81 29.89   0    
Sep 23 01:00 SW 3 8 Thunderstorms and Rain BKN012 BKN035 BKN080 BKN180 77 77     100%   79 29.88   0    
Sep 23 00:53 WSW 6 9 Rain SCT012 BKN035 BKN080 BKN180 77 77     100%   79 29.88 29.88 0   0
Sep 22 23:53 ESE 3 9 Mostly Cloudy FEW010 SCT035 BKN180 BKN250 76 76     100%   78 29.89 29.88      
Sep 22 22:53 SE 3 10 Mostly Cloudy FEW010 SCT032 BKN045 BKN170 76 76     100%   78 29.9 29.9      
Sep 22 21:53 ESE 6 10 Mostly Cloudy FEW010 BKN043 BKN170 BKN250 75 75     100%   77 29.91 29.9   0  
Sep 22 20:53 ESE 5 10 Mostly Cloudy FEW010 FEW034 SCT160 BKN200 75 75     100%   77 29.89 29.88      
Sep 22 19:53 S 5 10 Mostly Cloudy FEW020 FEW070 SCT140 BKN200 75 75     100%   77 29.88 29.87 0    
Sep 22 18:53 SE 9 7 Light Rain FEW020 FEW065 BKN120 BKN250 75 75     100%   77 29.88 29.88 0   1
Sep 22 17:53 SE 5 6 Rain and Fog/Mist FEW008 FEW020 BKN120 BKN250 74 74     100%   76 29.89 29.89 0    
Sep 22 16:53 SE 3 5 Rain and Fog/Mist FEW007 SCT060 BKN120 OVC250 75 75     100%   77 29.88 29.88 0    
Sep 22 16:34 S 5 4 Rain and Fog/Mist FEW007 SCT060 BKN120 OVC250 75 75     100%   77 29.89   0    
Sep 22 16:04 S 6 3 Thunderstorms and Rain and Fog/Mist SCT006 SCT015 BKN060 OVC130 75 75     100%   77 29.9   0    
Sep 22 15:53 5 2 Thunderstorms and Rain and Fog/Mist FEW004 BKN010 OVC060 75 74     96%   77 29.9 29.9 0 0  
Sep 22 15:49 WSW 7 2 Thunderstorms and Heavy Rain and Fog/Mist FEW004 BKN012 OVC060 75 73     94%   77 29.9   0    
Sep 22 15:28 SSW 7 1 Thunderstorms and Heavy Rain and Fog/Mist FEW008 BKN015 BKN060 OVC150 79 76     90%   83 29.91   0    
Sep 22 14:53 WNW 6 10 Thunderstorms FEW008 BKN015 BKN060 BKN150 OVC250 82 78     88%   91 29.9 29.9      
Sep 22 14:44 NW 3 10 Cloudy BKN015 BKN060 BKN150 OVC250 82 79     90%   92 29.9        
Sep 22 13:53 S 7 10 Cloudy SCT027 SCT080 BKN120 OVC250 84 79     85%   96 29.91 29.91      
Sep 22 13:26 SSE 10 10 Mostly Cloudy BKN025 BKN120 BKN250 84 78     82%   95 29.91        
Sep 22 12:53 S 7 10 Mostly Cloudy SCT025 SCT130 BKN250 85 79     82%   98 29.92 29.91     0
Sep 22 11:53 SSE 11 10 Mostly Cloudy FEW025 FEW100 BKN150 BKN250 83 80     91%   95 29.94 29.93 0    
Sep 22 10:53 S 6 10 Mostly Cloudy FEW025 FEW045 FEW100 BKN150 BKN250 80 77     90%   86 29.94 29.93 0    
Sep 22 09:53 S 6 7 Light Rain SCT025 SCT050 BKN090 BKN150 BKN250 77 77     100%   79 29.93 29.93 0 0  
Sep 22 09:45 S 8 5 Light Rain and Fog/Mist SCT025 SCT050 BKN090 BKN250 77 77     100%   79 29.93   0    
Sep 22 09:27   1.5 Light Rain and Fog/Mist FEW010 BKN020 BKN045 OVC250 77 76     96%   79 29.95   0    
Sep 22 09:12 SSE 14 7 Cloudy FEW006 BKN011 OVC080 79 79     100%   84 29.94        
Sep 22 08:53 S 5 7 Mostly Cloudy SCT012 SCT035 BKN080 BKN250 81 81     100%   91 29.93 29.93 0    
Sep 22 07:53 S 6 7 Light Rain SCT012 SCT035 SCT080 BKN250 80 80     100%   87 29.92 29.92 0    
Sep 22 06:53 Calm 9 Mostly Cloudy SCT020 BKN100 BKN250 79 79     100%   84 29.92 29.92      
Sep 22 05:53 Calm 9 Mostly Cloudy FEW010 SCT022 SCT150 BKN250 80 80     100%   87 29.91 29.91      
Sep 22 05:27 SSE 3 8 Mostly Cloudy SCT010 BKN150 BKN250 80 80     100%   87 29.91        
Sep 22 04:53 Calm 8 Mostly Cloudy FEW005 BKN010 BKN150 BKN250 79 79     100%   84 29.9 29.89      
Sep 22 04:21 Calm 9 Mostly Cloudy FEW005 BKN010 BKN150 BKN250 80 80     100%   87 29.9        
Sep 22 03:53 SSE 3 10 Mostly Cloudy BKN012 BKN150 BKN250 80 80     100%   87 29.9 29.9      
Sep 22 03:41 SE 3 10 Mostly Cloudy BKN012 BKN150 BKN250 80 80     100%   87 29.91        
Sep 22 02:53 SSW 3 10 Mostly Cloudy FEW015 SCT150 BKN250 80 80     100%   87 29.91 29.91      
Sep 22 01:53 SSE 5 9 Mostly Cloudy FEW012 SCT028 BKN160 BKN250 79 79     100%   84 29.93 29.92      
Sep 22 01:34 SSE 5 9 Mostly Cloudy SCT012 SCT030 BKN160 BKN250 79 79     100%   84 29.93        
Sep 22 00:53 Calm 9 Mostly Cloudy BKN015 BKN160 BKN250 79 79     100%   84 29.95 29.94     0
Sep 22 00:40 Calm 9 Mostly Cloudy BKN015 BKN160 BKN250 79 79     100%   84 29.95        
Sep 21 23:53 SE 7 10 Mostly Cloudy FEW015 SCT160 BKN250 79 79     100%   84 29.95 29.94      
Sep 21 22:53 ESE 8 10 Mostly Cloudy FEW015 BKN160 BKN250 78 78     100%   81 29.95 29.94      
Sep 21 21:53 ESE 7 10 Cloudy FEW005 FEW015 BKN160 OVC250 79 79     100%   84 29.96 29.96   0  
Sep 21 21:16 ESE 7 7 Cloudy FEW004 SCT014 BKN170 OVC250 79 79     100%   84 29.96        
Sep 21 20:53 SE 6 7 Cloudy FEW008 BKN014 BKN170 OVC250 79 79     100%   84 29.95 29.95 0    
Sep 21 20:35 E 8 10 Cloudy FEW008 BKN017 BKN160 OVC250 79 79     100%   84 29.94   0    
Sep 21 20:14 NE 6 10 Cloudy FEW008 SCT017 BKN160 OVC250 79 79     100%   84 29.94   0    
Sep 21 19:53 N 6 10 Light Rain SCT017 SCT080 BKN160 OVC250 78 78     100%   81 29.94 29.93 0    
Sep 21 18:53 ESE 5 10 Cloudy FEW020 SCT100 BKN160 OVC250 78 78     100%   81 29.93 29.93 0   0
Sep 21 17:53 ESE 7 7 Light Rain FEW030 BKN100 OVC150 78 78     100%   81 29.93 29.92 0    
Sep 21 16:53 SSW 3 10 Light Rain FEW030 SCT080 BKN120 OVC160 78 78     100%   81 29.94 29.93 0    
Sep 21 15:53 SE 14 10 Light Rain SCT025 SCT070 BKN110 OVC180 78 77     96%   81 29.91 29.9 0 0  
Sep 21 15:33 S 3 7 Cloudy SCT025 SCT070 BKN110 OVC180 78 77     96%   81 29.91   0    
Sep 21 14:53 SSE 10 3 Thunderstorms and Rain and Fog/Mist SCT025 BKN095 OVC180 75 73     94%   77 29.94 29.93 0    
Sep 21 14:44 SE 14 2 Thunderstorms and Rain BKN025 OVC180 74 73     97%   76 29.93   0    
Sep 21 14:30   1 Thunderstorms and Heavy Rain and Fog/Mist BKN025 BKN180 BKN220 77 73     88%   79 29.96   0    
Sep 21 14:08 SE 13 7 Thunderstorms SCT025 BKN180 BKN220 87 81     82%   104 29.92        
Sep 21 13:53 ESE 10 10 Mostly Cloudy SCT025 SCT180 BKN220 85 81     88%   100 29.91 29.91      
Sep 21 12:53 ESE 9 10 Mostly Cloudy SCT025 SCT033 BKN180 BKN250 84 79     85%   96 29.95 29.95 0   0
Sep 21 12:14 SE 13 10 Thunderstorms and Rain SCT025 BKN033 BKN180 BKN250 83 79     88%   94 29.96   0    
Sep 21 11:53 S 9 10 Mostly Cloudy SCT020 BKN190 BKN250 87 79     77%   101 29.97 29.97      
Sep 21 10:53 SSE 9 10 Mostly Cloudy SCT015 BKN190 BKN250 85 80     85%   99 29.97 29.97      
Sep 21 09:53 SSE 10 10 Mostly Cloudy FEW010 BKN180 BKN250 84 81     91%   98 29.97 29.96   0  
Sep 21 08:53 SSE 5 10 Mostly Cloudy FEW120 BKN180 BKN250 81 80     97%   90 29.97 29.96      
Sep 21 07:53 SE 8 10 Cloudy FEW070 SCT120 OVC160 79 79     100%   84 29.96 29.96 0    
Sep 21 06:53 Calm 10 Cloudy FEW050 SCT120 OVC170 80 79     97%   87 29.96 29.96     0
Sep 21 05:53 Calm 10 Cloudy FEW025 SCT120 OVC170 79 79     100%   84 29.95 29.95 0    
Sep 21 04:53 Calm 10 Cloudy FEW025 SCT100 OVC150 79 79     100%   84 29.93 29.93      
Sep 21 03:53 Calm 10 Cloudy FEW025 SCT090 OVC150 80 79     97%   87 29.93 29.93 0 0  
Sep 21 02:53 Calm 10 Cloudy FEW025 BKN150 OVC200 80 79     97%   87 29.93 29.93      
Sep 21 01:53 S 3 10 Cloudy FEW025 FEW060 OVC150 79 78     97%   83 29.95 29.94      
Sep 21 00:53 S 3 10 Mostly Cloudy BKN150 BKN250 79 78     97%   83 29.96 29.95      
Sep 20 23:53 S 5 10 Mostly Cloudy FEW020 BKN150 BKN250 80 78     94%   86 29.97 29.96      
Sep 20 22:53 SSE 5 10 Mostly Cloudy FEW025 SCT150 BKN250 80 78     94%   86 29.97 29.96      
Sep 20 20:53 S 3 10 Mostly Cloudy FEW026 SCT190 BKN250 81 78     91%   89 29.94 29.94      
Sep 20 19:53 SSE 8 10 Mostly Cloudy FEW032 SCT120 BKN200 81 78     91%   89 29.92 29.92      
Sep 20 17:53 ESE 8 10 Mostly Cloudy SCT030 SCT110 BKN180 BKN250 80 79     97%   87 29.91 29.91      
Sep 20 16:53 WSW 3 10 Mostly Cloudy FEW012 SCT030 BKN100 BKN250 79 78     97%   83 29.91 29.91 0    
Sep 20 16:38 ENE 5 7 Thunderstorms and Rain FEW013 SCT030 SCT100 BKN250 77 76     96%   79 29.92   0    
Sep 20 16:34 ESE 9 1.5 Thunderstorms and Heavy Rain and Fog/Mist FEW008 SCT025 SCT100 BKN250 76 75     97%   78 29.92   0    
Sep 20 16:19   0.75 Thunderstorms and Heavy Rain FEW008 SCT025 BKN080 BKN250 77 70     79%   78 29.94   0    
Sep 20 15:53   1.25 Thunderstorms and Heavy Rain and Fog/Mist FEW010 SCT030 BKN080 BKN250 75 74     96%   77 29.93 29.93 0 0  
Sep 20 15:44   1 Thunderstorms and Heavy Rain and Fog/Mist FEW010 SCT035 BKN090 BKN250 75 74     96%   77 29.95   0    
Sep 20 15:26 SSE 13 4 Thunderstorms and Rain and Fog/Mist FEW010 SCT035 BKN090 BKN250 75 73     94%   77 29.93   0    
Sep 20 15:08   1.5 Thunderstorms and Rain and Fog/Mist FEW015 BKN040 BKN090 BKN250 81 79     94%   89 29.95   0    
Sep 20 14:53 WSW 5 7 Thunderstorms and Heavy Rain FEW030 BKN045 BKN090 BKN250 82 80     94%   93 29.93 29.93 0    
Sep 20 14:22 ESE 11 10 Thunderstorms FEW035 SCT045 BKN110 BKN250 84 78     82%   95 29.94        
Sep 20 13:53 ESE 9 10 Mostly Cloudy FEW035 SCT045 BKN120 BKN250 83 77     82%   92 29.95 29.95      
Sep 20 12:53 SSE 11 10 Mostly Cloudy SCT035 SCT045 BKN120 BKN250 85 75     72%   93 29.97 29.96      
Sep 20 12:43 SE 14 10 Mostly Cloudy SCT035 SCT050 BKN120 BKN250 85 75     72%   93 29.98        
Sep 20 11:53 SE 10 10 Thunderstorms SCT030 BKN045 BKN150 BKN250 87 77     72%   99 29.99 29.98      
Sep 20 11:39 S 6 10 Thunderstorms FEW030 BKN042 BKN150 BKN250 88 77     70%   100 29.99        
Sep 20 10:53 SSE 10 10 Mostly Cloudy FEW025 BKN035 BKN150 BKN250 87 76     70%   98 29.99 29.98      
Sep 20 09:53 SSE 8 10 Partly Cloudy SCT022 SCT150 SCT250 85 79     82%   98 29.98 29.98      
Sep 20 08:53 ESE 5 10 Partly Cloudy FEW025 FEW150 SCT200 82 79     90%   92 29.97 29.97      
Sep 20 07:53 Calm 10 Partly Cloudy FEW025 SCT150 SCT200 77 77     100%   79 29.95 29.95      
Sep 20 06:53 Calm 10 Mostly Cloudy FEW020 BKN200 76 76     100%   78 29.94 29.93      
Sep 20 05:53 Calm 10 Mostly Cloudy FEW020 FEW150 BKN200 76 76     100%   78 29.93 29.93      
Sep 20 04:53 SSW 3 10 Mostly Cloudy FEW020 FEW150 BKN250 76 76     100%   78 29.94 29.93      
Sep 20 03:53 Calm 10 Mostly Cloudy SCT018 SCT150 BKN250 76 76     100%   78 29.94 29.94      
Sep 20 02:53 Calm 10 Mostly Cloudy FEW150 BKN250 76 76     100%   78 29.94 29.94      
Sep 20 01:53 Calm 10 Partly Cloudy SCT150 SCT250 75 75     100%   77 29.96 29.95      
Sep 20 00:53 Calm 10 Mostly Clear FEW150 FEW250 76 75     97%   78 29.97 29.96      
Sep 19 23:53 S 3 10 Mostly Clear FEW250 78 76     93%   80 29.96 29.95      
Sep 19 22:53 S 6 10 Mostly Clear FEW250 81 75     82%   87 29.94 29.94      
Sep 19 21:53 S 6 10 Mostly Clear FEW250 83 75     77%   90 29.94 29.94      
Sep 19 20:53 S 8 10 Mostly Clear FEW250 83 75     77%   90 29.91 29.91      
Sep 19 19:53 SSE 8 10 Mostly Clear FEW040 FEW250 84 76     77%   93 29.89 29.89      
Sep 19 18:53 SE 10 10 Mostly Clear FEW040 FEW250 88 76     68%   99 29.89 29.88      
Sep 19 17:53 SE 9 10 Mostly Clear FEW050 FEW250 90 75     62%   101 29.88 29.88      
Sep 19 16:53 ESE 10 10 Partly Cloudy SCT050 SCT250 92 74     56%   102 29.89 29.88      
Sep 19 15:53 SE 11 10 Partly Cloudy SCT050 93 74     54%   103 29.9 29.9      
Sep 19 14:53 S 6 10 Partly Cloudy SCT048 93 75     56%   105 29.92 29.91      
Sep 19 13:53 ESE 9 10 Mostly Cloudy BKN043 92 75     58%   103 29.94 29.94      
Sep 19 12:53 SSE 9 10 Partly Cloudy SCT040 91 75     60%   102 29.96 29.96      
Sep 19 11:53 Calm 10 Mostly Clear FEW025 90 75     62%   101 29.97 29.97      
Sep 19 10:53 S 7 10 Mostly Clear FEW023 88 76     68%   99 29.98 29.98      
Sep 19 07:53 Calm 10 Mostly Clear FEW035 78 77     96%   81 29.96 29.96      
Sep 19 06:53 Calm 10 Mostly Clear FEW250 77 76     96%   79 29.95 29.95      
Sep 19 05:53 Calm 10 Mostly Clear FEW045 FEW250 77 76     96%   79 29.95 29.94      
Sep 19 04:53 Calm 10 Mostly Clear FEW250 79 76     90%   83 29.94 29.93      
Sep 19 03:53 WSW 3 10 Mostly Clear FEW250 79 76     90%   83 29.93 29.93      
Sep 19 02:53 Calm 10 Mostly Clear FEW250 80 76     87%   85 29.93 29.93      
Sep 19 01:53 Calm 10 Mostly Clear FEW250 80 76     87%   85 29.94 29.93      
Sep 19 00:53 Calm 10 Mostly Clear FEW250 82 76     82%   89 29.94 29.93      
Sep 18 23:53 SSW 5 10 Partly Cloudy SCT250 83 76     79%   91 29.94 29.93      
Sep 18 22:53 S 5 10 Mostly Clear FEW250 84 76     77%   93 29.93 29.93      
Sep 18 21:53 S 7 10 Mostly Clear FEW250 85 77     77%   95 29.92 29.91      
Sep 18 20:53 S 7 10 Partly Cloudy FEW040 SCT250 86 77     75%   97 29.91 29.9      
Sep 18 19:53 S 6 10 Partly Cloudy FEW045 SCT250 87 78     75%   100 29.88 29.88      
Sep 18 18:53 SSE 8 10 Partly Cloudy FEW050 SCT250 90 76     64%   102 29.88 29.87     0
Sep 18 17:53 SE 7 10 Partly Cloudy FEW050 SCT250 94 75     54%   106 29.88 29.87 0    
Sep 18 16:53 3 10 Partly Cloudy FEW055 SCT250 95 74     51%   106 29.88 29.88      
Sep 18 15:53 Calm 10 Partly Cloudy SCT055 SCT250 95 74     51%   106 29.9 29.89      
Sep 18 14:53 SSW 5 10 Partly Cloudy SCT050 SCT250 94 75     54%   106 29.92 29.91      
Sep 18 13:53 3 10 Partly Cloudy SCT048 SCT250 92 75     58%   103 29.94 29.93      
Sep 18 12:53 Calm 10 Partly Cloudy SCT045 SCT250 93 76     58%   106 29.97 29.96      
Sep 18 10:53 NNW 6 10 Mostly Clear FEW035 FEW140 FEW200 88 74     63%   97 30.01 30      
Sep 18 09:53 W 7 10 Mostly Cloudy FEW025 FEW140 BKN200 85 73     68%   92 30.01 30      
Sep 18 08:53 W 7 10 Mostly Cloudy FEW140 BKN200 83 75     77%   90 30.01 30      
Sep 18 07:53 Calm 10 Mostly Cloudy FEW140 BKN200 79 76     90%   83 29.99 29.99      
Sep 18 06:53 WSW 3 10 Mostly Cloudy BKN200 78 75     90%   80 29.98 29.97      
Sep 18 05:53 W 3 10 Mostly Cloudy BKN200 79 76     90%   83 29.96 29.96      
Sep 18 04:53 Calm 10 Mostly Cloudy SCT200 BKN250 79 76     90%   83 29.96 29.95      
Sep 18 03:53 WSW 3 10 Mostly Cloudy SCT200 BKN250 78 76     93%   80 29.96 29.95      
Sep 18 02:53 WSW 5 10 Mostly Cloudy FEW200 BKN250 80 76     87%   85 29.96 29.95      
Sep 18 01:53 WSW 6 10 Mostly Cloudy SCT200 BKN250 82 76     82%   89 29.96 29.96      
Sep 18 00:53 Calm 10 Mostly Cloudy BKN200 BKN250 82 77     85%   90 29.97 29.96      
Sep 17 23:53 SSW 5 10 Partly Cloudy SCT250 83 78     85%   93 29.97 29.96      
Sep 17 22:53 SSW 6 10 Partly Cloudy SCT250 84 77     80%   94 29.97 29.96      
Sep 17 21:53 SW 5 10 Partly Cloudy FEW040 SCT250 84 77     80%   94 29.95 29.94      
Sep 17 20:53 Calm 10 Partly Cloudy FEW045 SCT250 83 76     79%   91 29.93 29.92      
Sep 17 19:53 Calm 10 Partly Cloudy FEW050 SCT250 82 76     82%   89 29.91 29.9      
Sep 17 18:53 6 10 Partly Cloudy FEW055 SCT250 88 76     68%   99 29.9 29.89      
Sep 17 17:53 NNW 3 10 Partly Cloudy FEW060 SCT250 95 73     49%   105 29.89 29.89      
Sep 17 16:53 Calm 10 Partly Cloudy SCT055 SCT250 94 73     51%   103 29.9 29.9      
Sep 17 15:53 Calm 10 Mostly Cloudy SCT050 BKN250 93 73     52%   102 29.91 29.91      
Sep 17 14:53 N 3 10 Partly Cloudy SCT045 SCT250 94 75     54%   106 29.93 29.93      
May 15 10:53 SW 5 10 Mostly Cloudy FEW030 BKN180 BKN250 83 68     61%   86 29.99 29.99      
May 15 05:53 Calm 7 Fog FEW008 FEW250 66 66     100%     29.92 29.91      
May 14 16:53   10 Mostly Cloudy FEW065 BKN250 90 68     49%   94 29.91 29.91      
May 11 14:53 S 13 10 Partly Cloudy SCT050 89 65     45%   91 29.95 29.95      
Jun 10 20:53 SE 15 10 Mostly Clear FEW035 79 70     74%   82 29.89 29.89      
Jun 09 22:53 S 3 10 Mostly Cloudy FEW050 SCT180 BKN250 75 65     71%   76 29.91 29.91      
Jun 09 06:53 Calm 10 Partly Cloudy FEW070 SCT250 69 65     87%     29.91 29.91      
Jun 08 18:53 NE 8 10 Mostly Clear FEW070 FEW250 86 60     42%   86 29.86 29.86      
Jun 06 09:53 NNW 7 10 Mostly Clear FEW020 81 73     77%   86 29.78 29.78      
Jun 06 06:53 WNW 3 10 Mostly Clear FEW020 FEW070 FEW250 73 71     94%   74 29.77 29.77      
Notice The following observation data may not be complete
Jun 05 18:23   0.5 Thunderstorms and Heavy Rain and Fog/Mist SCT024 SCT042 BKN070 BKN130 BKN250          %         0